カタログに戻る

CZ-6A DEB

運用中PO
NORAD 60815·DEBRIS·🇨🇳 China

打ち上げ Aug 6, 2024 から Taiyuan Satellite Launch Center

Loading…

次のパス (今後24時間)

TLE

最新Source: Space-Track

元期: Sep 13, 2026, 22:03 UTC

1 60815U 24140GS  26256.91927975  .00000205  00000-0  21343-3 0  9994
2 60815  88.5488 244.2246 0586956 260.7300  92.7031 13.16524701100298

AllMySatでCZ-6A DEBをリアルタイム追跡

Download on the App Store